Location: Luxembourg
(49.6117°N, 6.1300°E)
Time: 11:13:26
(UTC+01:00)

Tiangong 2 - Visible Passes

Search period start: 24 January 2019 00:00
Search period end: 03 February 2019 00:00
Orbit: 380 x 392 km, 42.8° (Epoch: 24 January)

Date Brightness Start Highest point End Pass type
(mag) Time Alt. Az. Time Alt. Az. Time Alt. Az.
24 Jan 3.2 06:44:40 15° SW 06:45:48 18° SSW 06:48:05 10° SSE visible
25 Jan 3.7 05:48:23 16° SSE 05:48:23 16° SSE 05:49:29 10° SE visible
25 Jan 3.8 07:22:48 10° SSW 07:23:01 10° SSW 07:23:14 10° SSW visible
26 Jan 3.4 06:24:22 14° SSW 06:24:22 14° SSW 06:26:01 10° SSE visible
